• Bienvenue sur Pilotes Québec!
  • Bienvenue sur le site de Pilotes Québec, la nouvelle communauté des pilotes et aviateurs du Québec.
  • L'Antonov An-2 C-FAKA, piloté par Neil Bilodeau a fait sa première apparition sur skis dans un RV hivernal, au rendez-vous hivernal annuel Challenger à Montebello.  Encore merci Jean-Pierre pour l'image spectaculaire!
  • Calendrier des activités
  • sujets récents au forum...
  • Les nouvelles en bref...

Connexion


J'ai oublié mon mot de passe
Renvoyer l'e-mail de confirmation
 

Conditions actuelles

Click for Quebec, Quebec Forecast

METAR - Québec


2015/03/05 02:00
CYQB 050200Z 31014G20KT 15SM FEW055 BKN080 M03/M12 A2966 RMK SC1AC6 PRESRR SLP049

TAF - Québec


2015/03/04 18:45
TAF CYQB 041743Z 0418/0518 25020G30KT P6SM -SHSN BKN025
TEMPO 0418/0421 21/2SM -SHSN BLSN BKN020 PROB30 0418/0421 1/2SM SHSN BLSN VV006
FM042100 25015G25KT P6SM -SHSN BKN040
BECMG 0422/0424 26015KT
FM050400 28012KT P6SM FEW060
RMK NXT FCST BY 050000Z

Accueil Forum Aéroports
Région de Montréal
Région de Québec
Calendrier Ressources
Fréquences FIC de Québec
Associations et aéroclubs
Regroupements à l'échelle inter-régionnal
Aéroclubs et associations régionales
Nous joindre Publicité


Copyright © 2015, Pilotes Québec, tous droits réservés.
Protégé par les lois du copyright des États-Unis et du Canada et par des traités internationaux.